Regional Weather Roundup
Issued by NWS Sioux Falls, SD

Home | Current Version | Previous Version | Text Only | Print | Product List | Glossary Off
Versions: 1 2 3 4 5 6 7 8 9 10 11 12 13 14 15 16 17 18 19 20 21 22 23 24 25 26 27 28 29 30 31 32 33 34 35 36 37 38 39 40 41 42 43 44 45 46 47 48 49 50

000
ASUS43 KFSD 111410
RWRFSD

WEATHER ROUNDUP FOR SE SOUTH DAKOTA/SW MINNESOTA/NW IOWA
NATIONAL WEATHER SERVICE SIOUX FALLS SD
800 AM CST THU FEB 11 2016

NOTE: "FAIR" INDICATES FEW OR NO CLOUDS BELOW 12,000 FEET WITH NO
SIGNIFICANT WEATHER AND OR OBSTRUCTIONS TO VISIBILITY.


SDZ038>040-050-052>070-111500-
SOUTHEAST SOUTH DAKOTA

CITY           SKY/WX    TMP DP  RH WIND       PRES   REMARKS
BROOKINGS      CLOUDY    12   7  80 S8        30.21F WCI   0
CHAMBERLAIN    CLOUDY    21  20  97 SE10      30.15F WCI  10
HURON          CLOUDY    18  13  80 S7        30.20F WCI   9
MADISON        CLOUDY    12   9  85 S12       30.21S WCI  -2
MITCHELL       CLOUDY    18  13  80 SE10      30.22F WCI   6
SIOUX FALLS    CLOUDY    13   5  70 S8        30.25R WCI   2
WINNER         CLOUDY    28  23  81 SE8       30.13S WCI  20
YANKTON        CLOUDY    16  10  79 E6        30.25F WCI   7
$$

MNZ071-072-080-081-089-090-097-098-111500-
SOUTHWEST MINNESOTA

CITY           SKY/WX    TMP DP  RH WIND       PRES   REMARKS
FAIRMONT       PTCLDY    -6 -11  77 CALM      30.28S
JACKSON        PTCLDY     0  -6  78 CALM      30.26F
LUVERNE        CLOUDY    14   9  79 S5        30.26S WCI   6
MARSHALL       MOCLDY     0  -4  83 S3        30.28S
MONTEVIDEO     CLOUDY     1  -2  85 CALM      30.30R
PIPESTONE      CLOUDY    14   5  67 S6        30.22S WCI   5
REDWOOD FALLS  CLOUDY     0  -3  87 S3        30.30S
TRACY          CLOUDY     2  -2  85 CALM      30.26F
WINDOM         PTCLDY    -9 -13  84 CALM      30.26S
WORTHINGTON    CLOUDY     9   1  72 SE6       30.26S WCI  -1
$$

IAZ001>003-012>014-020>022-031-032-NEZ013-014-SDZ071-111500-
NORTHWEST IOWA

CITY           SKY/WX    TMP DP  RH WIND       PRES   REMARKS
CHEROKEE       CLOUDY    13   6  74 SE5       30.29S WCI   5
DENISON        CLOUDY    12   3  67 E6        30.28S WCI   3
ESTHERVILLE    CLOUDY    -4  -6  91 NE3       30.27F
LE MARS        CLOUDY    14   9  79 SE8       30.29S WCI   3
ORANGE CITY    CLOUDY    12   9  85 SE7       30.26S WCI   2
SHELDON        CLOUDY    12   7  79 SE7       30.26S WCI   2
SIOUX CITY     CLOUDY    17   9  70 SE7       30.30S WCI   8
SPENCER        CLOUDY    10   0  63 SE5       30.29R WCI   2
STORM LAKE     CLOUDY    10   5  79 SE7       30.28R WCI   0
$$

ABBREVIATIONS USED IN REMARKS
   TC - TEMPERATURE IN CELSIUS
  WCI - WIND CHILL INDEX
   HX - HEAT INDEX
  VSB - VISIBILITY




USA.gov is the U.S. government's official web portal to all federal, state and local government web resources and services.